GEESAT-3 07 (61017 NORAD) Tracking and Keplerian Element Data

This shows tracking and keplerian element data for the satellite.

Feedback or suggestion? Click here.




ElementValue
Catalog61017
NameGEESAT-3 07
Epoch Orbit490
Epoch Day286.88419546
Epoch Year2024
RAAN65.0575
Inclination49.9933
Eccentricity0.0016719
Argument of Perigee53.1191
Mean Anonmoly307.1281
Mean Motion14.92349142
Decay Rate0.00013625
L11 61017U 24159G 24286.88419546 .00013625 00000+0 13354-2 0 9997
L22 61017 49.9933 65.0575 0016719 53.1191 307.1281 14.92349142 4900



Live tracking and technical data element details for GEESAT-3 07 (NORAD 61017). GEESAT-3 07 can be tracked NOW for your location showing map with azimuth and elevation plus other details from your city location.







IsCatalogInMostPopularTable: catalog: 61017, numindb: 7
Update: records affected: 1



GetName: 61017 GEESAT-3 07

Hit Count: updated at: Tue, 03 Dec 2024 03:26:41 GMT